Terminal Aerodrome Forecast
Issued by NWS

Home | Current Version | Previous Version | Text Only | Print | Product List | Glossary On
Versions: 1 2 3 4 5 6 7 8 9 10 11 12 13 14 15 16 17 18 19 20 21 22 23 24 25 26 27 28 29 30 31 32 33 34 35 36 37 38 39 40
000
FTUS45 KCYS 070520
TAFRWL
TAF
KRWL 070520Z 0706/0806 04012KT P6SM -RA OVC035
     FM071000 04006KT 4SM BR OVC015
     FM071300 04008KT P6SM BKN035 OVC050
     FM071800 04010KT P6SM VCTS BKN050CB
     FM080200 06007KT 4SM -RA OVC025=

USA.gov is the U.S. government's official web portal to all federal, state and local government web resources and services.